• In Denmark
  • List of Countries
  • For 7 days
  • Water Temperature
  • Satellite Maps
  • Weather Map
  • Weather Widgets
  • user-avatar
    Login

    Hourly Weather Sankt Polten

    Today, 19 November, Sunday

    Time Temperature Precipitation Wind Pressure Humidity
    00:00 +1°C° 0 mm 4 mps 736 mmHg 83%
    01:00 +1°C° 0 mm 4 mps 735 mmHg 81%
    02:00 +1°C° 0 mm 4 mps 735 mmHg 82%
    03:00 +1°C° 0 mm 4 mps 734 mmHg 83%
    04:00 +1°C° 0 mm 4 mps 734 mmHg 84%
    05:00 +2°C° 0 mm 3 mps 734 mmHg 85%
    06:00 +2°C° 0 mm 3 mps 734 mmHg 85%
    07:00 +2°C° 0 mm 2 mps 733 mmHg 85%
    08:00 +2°C° 0.3 mm 3 mps 733 mmHg 83%
    09:00 +3°C° 0.3 mm 3 mps 733 mmHg 80%
    10:00 +3°C° 0.3 mm 4 mps 733 mmHg 78%
    11:00 +3°C° 0.3 mm 4 mps 733 mmHg 78%
    12:00 +4°C° 0.3 mm 4 mps 733 mmHg 77%
    13:00 +3°C° 0.3 mm 5 mps 733 mmHg 77%
    14:00 +2°C° 0.1 mm 5 mps 733 mmHg 77%
    15:00 +2°C° 0.1 mm 5 mps 734 mmHg 78%
    16:00 +3°C° 0.1 mm 4 mps 734 mmHg 79%
    17:00 +1°C° 0.1 mm 5 mps 734 mmHg 80%
    18:00 +1°C° 0.1 mm 5 mps 734 mmHg 81%
    19:00 +1°C° 0.1 mm 6 mps 734 mmHg 82%
    20:00 +1°C° 0.2 mm 6 mps 735 mmHg 82%
    21:00 +1°C° 0.2 mm 6 mps 735 mmHg 83%
    22:00 +1°C° 0.2 mm 6 mps 735 mmHg 83%
    23:00 +1°C° 0.2 mm 6 mps 735 mmHg 83%

    Tomorrow, 20 November, Monday

    Time Temperature Precipitation Wind Pressure Humidity
    00:00 +1°C° 0.2 mm 6 mps 735 mmHg 83%
    01:00 +1°C° 0.2 mm 6 mps 735 mmHg 83%
    02:00 +1°C° 0.1 mm 6 mps 735 mmHg 82%
    03:00 +1°C° 0.1 mm 6 mps 736 mmHg 81%
    04:00 0°C° 0.1 mm 7 mps 736 mmHg 81%
    05:00 +1°C° 0.2 mm 6 mps 736 mmHg 80%
    06:00 +1°C° 0.2 mm 6 mps 737 mmHg 80%
    07:00 +1°C° 0.2 mm 6 mps 737 mmHg 80%
    08:00 +2°C° 0.1 mm 7 mps 738 mmHg 78%
    09:00 +2°C° 0.1 mm 7 mps 738 mmHg 77%
    10:00 +2°C° 0.1 mm 7 mps 738 mmHg 75%
    11:00 +2°C° 0 mm 6 mps 738 mmHg 75%
    12:00 +3°C° 0 mm 6 mps 738 mmHg 74%
    13:00 +3°C° 0 mm 6 mps 738 mmHg 73%
    14:00 +3°C° 0 mm 5 mps 738 mmHg 76%
    15:00 +2°C° 0 mm 5 mps 738 mmHg 78%
    16:00 +3°C° 0 mm 4 mps 738 mmHg 81%
    17:00 +1°C° 0.1 mm 4 mps 738 mmHg 81%
    18:00 +1°C° 0.1 mm 4 mps 738 mmHg 82%
    19:00 +1°C° 0.1 mm 4 mps 738 mmHg 82%
    20:00 +1°C° 0.1 mm 4 mps 737 mmHg 82%
    21:00 +2°C° 0.1 mm 3 mps 737 mmHg 81%
    22:00 +2°C° 0.1 mm 3 mps 737 mmHg 80%
    23:00 +1°C° 0.3 mm 4 mps 736 mmHg 80%

    Day after tomorrow, 21 November, Tuesday

    Time Temperature Precipitation Wind Pressure Humidity
    00:00 +3°C° 0.3 mm 4 mps 736 mmHg 79%
    01:00 +3°C° 0.3 mm 4 mps 735 mmHg 79%
    02:00 +3°C° 0.1 mm 4 mps 735 mmHg 79%
    03:00 +4°C° 0.1 mm 4 mps 735 mmHg 79%
    04:00 +3°C° 0.1 mm 5 mps 734 mmHg 80%
    05:00 +3°C° 0.3 mm 5 mps 734 mmHg 81%
    06:00 +3°C° 0.3 mm 5 mps 734 mmHg 82%
    07:00 +3°C° 0.3 mm 6 mps 734 mmHg 83%
    08:00 +4°C° 0 mm 6 mps 734 mmHg 83%
    09:00 +5°C° 0 mm 6 mps 734 mmHg 82%
    10:00 +5°C° 0 mm 7 mps 735 mmHg 82%
    11:00 +7°C° 0 mm 6 mps 734 mmHg 82%
    12:00 +7°C° 0 mm 6 mps 734 mmHg 82%
    13:00 +7°C° 0 mm 6 mps 734 mmHg 82%
    14:00 +7°C° 0 mm 5 mps 734 mmHg 84%
    15:00 +7°C° 0 mm 5 mps 734 mmHg 86%
    16:00 +6°C° 0 mm 4 mps 734 mmHg 88%
    17:00 +6°C° 0.1 mm 4 mps 735 mmHg 88%
    18:00 +6°C° 0.1 mm 4 mps 735 mmHg 88%
    19:00 +6°C° 0.1 mm 4 mps 735 mmHg 89%
    20:00 +6°C° 0.4 mm 4 mps 735 mmHg 88%
    21:00 +6°C° 0.4 mm 4 mps 736 mmHg 87%
    22:00 +6°C° 0.4 mm 4 mps 736 mmHg 86%
    23:00 +6°C° 0 mm 4 mps 736 mmHg 85%

    22 November, Wednesday

    Time Temperature Precipitation Wind Pressure Humidity
    00:00 +7°C° 0 mm 3 mps 736 mmHg 84%
    01:00 +5°C° 0 mm 3 mps 736 mmHg 83%
    02:00 +5°C° 0 mm 3 mps 736 mmHg 82%
    03:00 +5°C° 0 mm 3 mps 736 mmHg 81%
    04:00 +6°C° 0 mm 2 mps 735 mmHg 81%
    05:00 +6°C° 0 mm 2 mps 736 mmHg 80%
    06:00 +5°C° 0 mm 2 mps 736 mmHg 79%
    07:00 +5°C° 0 mm 2 mps 736 mmHg 78%
    08:00 +7°C° 0 mm 2 mps 736 mmHg 75%
    09:00 +8°C° 0 mm 2 mps 736 mmHg 72%
    10:00 +10°C° 0 mm 2 mps 736 mmHg 69%
    11:00 +12°C° 0 mm 2 mps 736 mmHg 67%
    12:00 +13°C° 0 mm 2 mps 736 mmHg 65%
    13:00 +14°C° 0 mm 2 mps 736 mmHg 63%
    14:00 +12°C° 0 mm 2 mps 736 mmHg 68%
    15:00 +11°C° 0 mm 1 mps 736 mmHg 72%
    16:00 +9°C° 0 mm 1 mps 735 mmHg 77%
    17:00 +9°C° 0 mm 1 mps 736 mmHg 76%
    18:00 +8°C° 0 mm 1 mps 736 mmHg 76%
    19:00 +7°C° 0 mm 2 mps 736 mmHg 76%
    20:00 +8°C° 0 mm 1 mps 736 mmHg 75%
    21:00 +7°C° 0 mm 1 mps 737 mmHg 73%
    22:00 +7°C° 0 mm 1 mps 737 mmHg 72%
    23:00 +7°C° 0 mm 1 mps 737 mmHg 72%

    23 November, Thursday

    Time Temperature Precipitation Wind Pressure Humidity
    00:00 +7°C° 0 mm 1 mps 737 mmHg 71%
    01:00 +7°C° 0 mm 1 mps 736 mmHg 70%
    02:00 +7°C° 0 mm 1 mps 736 mmHg 70%
    03:00 +6°C° 0 mm 1 mps 736 mmHg 70%
    04:00 +6°C° 0 mm 1 mps 736 mmHg 71%
    05:00 +6°C° 0 mm 1 mps 736 mmHg 71%
    06:00 +6°C° 0 mm 1 mps 737 mmHg 72%
    07:00 +6°C° 0 mm 1 mps 737 mmHg 72%
    08:00 +7°C° 0 mm 1 mps 737 mmHg 70%
    09:00 +9°C° 0 mm 1 mps 738 mmHg 69%
    10:00 +10°C° 0 mm 1 mps 738 mmHg 67%
    11:00 +11°C° 0 mm 1 mps 738 mmHg 66%
    12:00 +12°C° 0 mm 1 mps 738 mmHg 64%
    13:00 +13°C° 0 mm 1 mps 738 mmHg 63%
    14:00 +11°C° 0 mm 0 mps 738 mmHg 69%
    15:00 +9°C° 0 mm 0 mps 738 mmHg 74%
    16:00 +8°C° 0 mm 0 mps 738 mmHg 80%
    17:00 +8°C° 0 mm 1 mps 739 mmHg 80%
    18:00 +8°C° 0 mm 1 mps 739 mmHg 80%
    19:00 +7°C° 0 mm 1 mps 739 mmHg 79%
    20:00 +7°C° 0 mm 1 mps 740 mmHg 78%
    21:00 +7°C° 0 mm 1 mps 740 mmHg 77%
    22:00 +6°C° 0 mm 1 mps 740 mmHg 75%
    23:00 +6°C° 0 mm 1 mps 740 mmHg 74%

    24 November, Friday

    Time Temperature Precipitation Wind Pressure Humidity
    00:00 +6°C° 0 mm 1 mps 740 mmHg 73%
    01:00 +6°C° 0 mm 1 mps 740 mmHg 72%
    02:00 +6°C° 0 mm 1 mps 740 mmHg 71%
    03:00 +6°C° 0 mm 1 mps 740 mmHg 71%
    04:00 +6°C° 0 mm 1 mps 740 mmHg 70%
    05:00 +6°C° 0 mm 1 mps 740 mmHg 71%
    06:00 +6°C° 0 mm 1 mps 740 mmHg 71%
    07:00 +5°C° 0 mm 1 mps 740 mmHg 71%
    08:00 +7°C° 0 mm 1 mps 740 mmHg 70%
    09:00 +8°C° 0 mm 1 mps 740 mmHg 68%
    10:00 +10°C° 0 mm 1 mps 740 mmHg 67%
    11:00 +11°C° 0 mm 1 mps 740 mmHg 68%
    12:00 +11°C° 0 mm 1 mps 739 mmHg 68%
    13:00 +12°C° 0 mm 1 mps 739 mmHg 68%
    14:00 +11°C° 0 mm 1 mps 739 mmHg 75%
    15:00 +9°C° 0 mm 1 mps 739 mmHg 82%
    16:00 +8°C° 0 mm 1 mps 738 mmHg 88%
    17:00 +7°C° 0 mm 1 mps 739 mmHg 89%
    18:00 +7°C° 0 mm 1 mps 739 mmHg 90%
    19:00 +6°C° 0 mm 1 mps 739 mmHg 91%
    20:00 +6°C° 0 mm 1 mps 739 mmHg 91%
    21:00 +6°C° 0 mm 1 mps 739 mmHg 90%
    22:00 +5°C° 0 mm 1 mps 739 mmHg 90%
    23:00 +5°C° 0 mm 1 mps 738 mmHg 90%
    Show more